Find Starlink 11500

NORAD ID: 62472 Int'l Des: 2024-254 Owner: SPXS Country: US Constellation: starlink operational
LEOCIRCULAR

当前视图

正在加载3D地球...

About Starlink 11500

Starlink 11500 (NORAD 62472) is a starlink constellation satellite (v2 mini d2c) launched Dec 31, 2024 by SPXS of US. It operates in LEO, CIRCULAR orbit with a mass of 960.00 kg.

关于 Starlink 11500

正在加载描述...

即将过境

Passes for default location (London). Set your location on the main map for personalized predictions.

高度历史

Loading altitude history...

两行轨道根数

1 62472U 24254L 26165.58573790 -.00043947 00000-0 -34048-3 0 9993
2 62472 42.9997 358.6383 0002387 319.6937 40.3754 15.70859096 84114
Epoch: Jun 14, 2026 • Age: 56 hours

当前状态

高度 357.7 km
速度 7.70 km/s
星下点 12.52°N, 79.4°W
发射日期 Dec 31, 2024
运行时间 1.4 years
类型 internet

技术详情

分类 Payload
质量 960.00 kg
干质量 910.00 kg
总质量 960.00 kg
长度 0.30 m
直径 4.10 m
跨度 29.00 m
形状 Box + pan
制造商 SPXS
平台类型 Starlink V2MD
阶段状态 In Orbit
所有者/国家 SPXS/US

Most Searched